Other Public Products
Issued by NWS Grand Forks, ND

Home | Current Version | Previous Version | Graphics & Text | Print | Product List | Glossary On
Versions: 1 2 3 4 5 6 7 8 9 10 11 12 13 14 15 16 17 18 19 20 21 22 23 24 25 26 27 28 29 30 31 32 33 34 35 36 37 38 39 40 41 42 43 44 45 46 47 48 49 50
000
FPUS83 KFGF 062110
OPUFGF
PRAIRIE TO PINES WEATHER ROUNDUP
NATIONAL WEATHER SERVICE EASTERN NORTH DAKOTA/GRAND FORKS ND
400 PM CDT MON JUL 06 2015

 **SATELLITE DATA USED TO AUGMENT SKY COVER AT AUTOMATED STATIONS**
 *****  WEATHER ACROSS EASTERN NORTH DAKOTA  *****

CITY           SKY/WX    TMP DP  RH WIND       PRES   REMARKS
GRAND FORKS    PTSUNNY   66  51  58 N15       30.10S
GRAND FORKS AF PTSUNNY   64  51  62 NE13      30.11S
GRAND CITY NWS   N/A     64 N/A N/A N15         N/A
BUXTON         NOT AVBL
DEVILS LAKE    CLOUDY    64  45  48 N13       30.13S
FARGO          MOSUNNY   68  49  50 N16G25    30.09S
WAHPETON ARPT  MOCLDY    66  45  45 N21G26    30.08S
$$

 *****  WEATHER ACROSS CENTRAL AND WESTERN NORTH DAKOTA  *****

CITY           SKY/WX    TMP DP  RH WIND       PRES   REMARKS
JAMESTOWN      CLOUDY    64  50  60 N13       30.13R
BISMARCK       PTSUNNY   71  51  49 NW13      30.15S HAZE
MINOT          PTSUNNY   65  47  52 N10       30.16F
MINOT AFB      SUNNY     69  51  52 N7        30.16S
GARRISON         N/A     66  53  63 N8        30.17R
WILLISTON      MOSUNNY   70  48  45 N8        30.19F
DICKINSON      PTSUNNY   72  49  44 NW14G20   30.16F
HETTINGER      PTSUNNY   70  49  47 W8        30.19F
$$

 *****  OTHER OBSERVATIONS NORTHEAST NORTH DAKOTA  *****

CITY           SKY/WX    TMP DP  RH WIND       PRES   REMARKS
WALHALLA       FAIR      63  48  59 MISG      30.13S
LANGDON        FAIR      64  46  52 N12G21    30.14S
CAVALIER       FAIR      63  46  55 N17G24    30.12S
GRAFTON        MOCLDY    63  48  59 N14G21    30.12S
CANDO          MOCLDY    64  46  52 N9        30.16R
FORT TOTTEN      N/A     64  49  57 N7        29.95S
ROLLA          MOCLDY    61  45  55 N14       30.17S
RUGBY          NOT AVBL
 ***** THE ABOVE OBSERVATIONS ARE NON NWS ARE NOT QUALITY
        CONTROLLED AND MAY MIS-REPORT RAIN FOR SNOW...
$$

 *****  OTHER OBSERVATIONS SOUTHEAST NORTH DAKOTA *****

CITY           SKY/WX    TMP DP  RH WIND       PRES   REMARKS
COOPERSTOWN    NOT AVBL
VALLEY CITY    CLOUDY    63  50  63 N14G23    30.13R
OAKES            N/A     70  55  60 N16       30.11S
GWINNER        MOCLDY    68  50  52 N13G18    30.11S
SHEYENNE NWR     N/A     68  49  51 N9        29.95S
BUFFALO        NOT AVBL
WYNDMERE         N/A     68  48  49 N15         N/A
 ***** THE ABOVE OBSERVATIONS ARE NON NWS ARE NOT QUALITY
       CONTROLLED AND MAY MIS-REPORT RAIN FOR SNOW...
$$

  *****  WEATHER ACROSS NORTHERN MINNESOTA  *****

CITY           SKY/WX    TMP DP  RH WIND       PRES   REMARKS
FLAG ISLAND    CLOUDY    61  43  51 N18G24    30.04R
WARROAD        CLOUDY    61  46  59 NW10G20   30.07R
ROSEAU         CLOUDY    61  50  67 N8        30.07S
HALLOCK        PTSUNNY   63  45  51 N14G25    30.10S
THF RVR FALLS  CLOUDY    61  43  51 N17       30.10R
HALSTAD        NOT AVBL
FOSSTON        CLOUDY    59  45  58 N17       30.09S
BAUDETTE       MOSUNNY   63  44  50 N16G25    30.03R
WASKISH        CLOUDY    61  46  59 NW9       30.05R
CROOKSTON      MOSUNNY   64  50  59 N17G24    30.10S
$$
  *****  WEATHER ACROSS CENTRAL AND WEST MINNESOTA  *****

CITY           SKY/WX    TMP DP  RH WIND       PRES   REMARKS
BEMIDJI        CLOUDY    60  46  60 NW15      30.06R
PARK RAPIDS    CLOUDY    62  45  53 NW17      30.05R
WADENA         PTSUNNY   64  46  52 N16G24    30.04R
DETROIT LAKES  MOSUNNY   63  45  51 N20G30    30.09R
MOORHEAD       SUNNY     66  48  52 N21G28    30.10S
FERGUS FALLS   MOSUNNY   66  46  48 N22G33    30.07R
ELBOW LAKE     FAIR      67  50  54 NW26G32   30.05R
MORRIS MN      SUNNY     70  52  52 N25       30.04R
STAPLES        MOSUNNY   66  46  48 NW15G25   30.02R
WHEATON        MOSUNNY   66  50  55 NW20G28   30.09R
$$
  *****  WEATHER ELSEWHERE ACROSS MINNESOTA  *****

CITY           SKY/WX    TMP DP  RH WIND       PRES   REMARKS
DULUTH         PTSUNNY   65  55  70 NW8       29.93S SMOKE
INTRNTL FALLS  CLOUDY    61  44  53 N9        30.02R
ELY            PTSUNNY   64  48  55 NW12      29.95R
CLOQUET        PTSUNNY   68  54  60 NW9G17    29.94S
BRAINERD       MOSUNNY   69  48  47 N22G28    29.99R
HIBBING        PTSUNNY   64  48  56 N14G22    29.97R
ALEXANDRIA     SUNNY     68  49  50 N20G28    30.05R
SAINT CLOUD    MOSUNNY   72  56  57 NW14      29.96S HAZE
MINNEAPOLIS    CLOUDY    70  58  65 N15G24    29.94R SMOKE
$$

  *****  WEATHER ACROSS SOUTH DAKOTA  *****

CITY           SKY/WX    TMP DP  RH WIND       PRES   REMARKS
SIOUX FALLS    CLOUDY    74  60  61 N15G22    30.03R SMOKE
BROOKINGS      PTSUNNY   70  55  60 N15G25    30.07R
WATERTOWN      MOSUNNY   72  55  55 N20G25    30.07R HAZE
HURON          MOSUNNY   74  57  55 N15G23    30.08R HAZE
SISSETON         N/A     70  50  49 N17G31    30.08R
ABERDEEN       MOSUNNY   73  53  49 N13       30.10S HAZE
MITCHELL       MOSUNNY   75  59  57 N20G25    30.07R HAZE
PIERRE         MOSUNNY   76  54  46 N18G24    30.12S
MOBRIDGE       PTSUNNY   75  54  47 N12       30.12F
RAPID CITY     PTSUNNY   70  54  56 N7        30.22F
$$

  *****  SOME WEATHER IN NEARBY STATES *****

CITY           SKY/WX    TMP DP  RH WIND       PRES   REMARKS
GLASGOW MT     MOSUNNY   73  42  32 SW8       30.17F
GREAT FALLS MT MOSUNNY   71  49  45 S7        30.15F
CHEYENNE WY    CLOUDY    58  52  80 NE7       30.32F HAZE
SCOTTSBLUFF NE CLOUDY    69  52  54 E6        30.25F HAZE
OMAHA NE       LGT RAIN  75  72  90 N17       29.90F
DES MOINES IA  LGT RAIN  74  69  85 W3        29.88S
DAVENPORT IA   TSTM      73  70  90 N13G20    29.86S FOG
CHICAGO IL     CLOUDY    76  70  82 S8        29.90F
EAU CLAIRE WI  LGT RAIN  64  59  83 N15G24    29.87R
LA CROSSE WI   CLOUDY    76  69  79 S8        29.80S
$$

  *****  SOME NATIONAL WEATHER *****

CITY           SKY/WX    TMP DP  RH WIND       PRES   REMARKS
LA GUARDIA NY  PTSUNNY   81  65  58 SE12      30.11F
RALEIGH NC     MOSUNNY   89  68  49 SW10G16   30.07F HX  93
ATLANTA GA     MOSUNNY   83  70  64 SW9       30.13F
NEW ORLEANS LA PTSUNNY   90  73  57 S13       30.11F HX  98
OKLAHOMA CITY  PTSUNNY   90  75  61 S16G26    29.91F HX 100
ALBUQUERQUE NM MOSUNNY   86  50  28 VRB6      30.10F
SALT LAKE CITY PTSUNNY   89  54  30 NW9       30.05F
LOS ANGELES CA CLOUDY    70  61  73 W13       30.03F
BOISE ID       MOSUNNY   91  51  25 W10       30.02F
SEATTLE WA     PTSUNNY   81  53  37 SW8       30.01S
$$

*** WEATHER ACROSS MANITOBA...SASKATCHEWAN AND ONTARIO ***
                ***ONTARIO***

CITY           SKY/WX    TMP DP  RH WIND       PRES   REMARKS
GERALDTON      NOT AVBL
THUNDER BAY    LGT RAIN  61  57  88 NW7       29.90R
SIOUX LOOKOUT  CLOUDY    55  43  62 N10G18    30.00R
TORONTO        CLOUDY    81  64  57 E9        30.01F
BIG TROUT LK   CLOUDY    50  43  76 NW15G26   29.88R
PICKLE LAKE    CLOUDY    55  43  62 NW12G22   29.93R
DRYDEN         CLOUDY    55  41  58 NW9G17    30.02R
KENORA         PTSUNNY   57  41  54 NW15G24   30.05R
$$
                *** MANITOBA***

CITY           SKY/WX    TMP DP  RH WIND       PRES   REMARKS
BRANDON        MOSUNNY   66  43  42 NE5       30.16S
DAUPHIN        SUNNY     66  34  30 CALM      30.14F
ISLAND LAKE    PTSUNNY   64  39  39 NW10G18   29.99F
PILOT MOUND      N/A     63  45  51 N12G17      N/A
THE PAS        MOSUNNY   72  41  33 NW8       30.07F
THOMPSON       PTSUNNY   73  46  38 W10G18    29.96F
WINNIPEG       MOSUNNY   64  46  52 NW10      30.12S
LYNN LAKE      CLOUDY    73  37  27 W10G22    29.94F HAZE
CHURCHILL      MOSUNNY   59  43  55 E8        29.85F
GILLAM         PTSUNNY   68  48  49 W9        29.91F
$$
                ***SASKATCHEWAN***

CITY           SKY/WX    TMP DP  RH WIND       PRES   REMARKS
ESTEVAN        MOSUNNY   68  41  37 VRB7      30.19S
KINDERSLEY     NOT AVBL
LLOYDMINSTER   CLOUDY    64  45  48 S8        30.13F
PRINCE ALBERT  PTSUNNY   70  50  49 SW8G18    30.11F SMOKE
REGINA         MOSUNNY   68  41  37 VRB5      30.18F



USA.gov is the U.S. government's official web portal to all federal, state and local government web resources and services.